When you browse on this site, cookies collect data to enhance your experience and personalize the content and advertising you see.
Visit our Privacy Policy to learn more. By continuing to use the site, you agree to this use of cookies and data.
  • In Hungary
  • List of Countries
  • For 7 days
  • Water Temperature
  • Weather Map
  • News
  • Weather Widgets
  • user-avatar
    Login

    Hourly Weather Baturite

    Today, 12 November, Tuesday

    Time Temperature Precipitation Wind Pressure Humidity
    00:00 +24°C° 0 mm 2 mps 726 mmHg 88%
    01:00 +23°C° 0 mm 2 mps 726 mmHg 89%
    02:00 +23°C° 0 mm 2 mps 725 mmHg 89%
    03:00 +23°C° 0 mm 1 mps 725 mmHg 90%
    04:00 +24°C° 0 mm 2 mps 726 mmHg 86%
    05:00 +24°C° 0 mm 3 mps 726 mmHg 82%
    06:00 +24°C° 0 mm 3 mps 727 mmHg 78%
    07:00 +26°C° 0 mm 3 mps 727 mmHg 68%
    08:00 +28°C° 0 mm 3 mps 728 mmHg 57%
    09:00 +31°C° 0 mm 3 mps 728 mmHg 44%
    10:00 +34°C° 0 mm 3 mps 728 mmHg 38%
    11:00 +36°C° 0 mm 3 mps 727 mmHg 32%
    12:00 +38°C° 0 mm 3 mps 727 mmHg 27%
    13:00 +38°C° 0 mm 3 mps 726 mmHg 26%
    14:00 +38°C° 0 mm 3 mps 725 mmHg 25%
    15:00 +39°C° 0 mm 3 mps 724 mmHg 23%
    16:00 +35°C° 0 mm 3 mps 724 mmHg 37%
    17:00 +31°C° 0 mm 3 mps 724 mmHg 51%
    18:00 +27°C° 0 mm 3 mps 724 mmHg 65%
    19:00 +26°C° 0 mm 3 mps 725 mmHg 72%
    20:00 +25°C° 0 mm 3 mps 725 mmHg 78%
    21:00 +24°C° 0 mm 2 mps 726 mmHg 85%
    22:00 +24°C° 0 mm 3 mps 726 mmHg 85%
    23:00 +24°C° 0 mm 3 mps 726 mmHg 85%

    Tomorrow, 13 November, Wednesday

    Time Temperature Precipitation Wind Pressure Humidity
    00:00 +24°C° 0 mm 3 mps 726 mmHg 85%
    01:00 +24°C° 0 mm 3 mps 726 mmHg 85%
    02:00 +24°C° 0 mm 3 mps 726 mmHg 85%
    03:00 +23°C° 0 mm 2 mps 725 mmHg 85%
    04:00 +23°C° 0 mm 2 mps 726 mmHg 83%
    05:00 +23°C° 0 mm 2 mps 726 mmHg 81%
    06:00 +23°C° 0 mm 2 mps 727 mmHg 79%
    07:00 +25°C° 0 mm 3 mps 727 mmHg 67%
    08:00 +28°C° 0 mm 3 mps 728 mmHg 55%
    09:00 +31°C° 0 mm 3 mps 728 mmHg 43%
    10:00 +34°C° 0 mm 3 mps 728 mmHg 38%
    11:00 +36°C° 0 mm 3 mps 728 mmHg 32%
    12:00 +38°C° 0 mm 3 mps 728 mmHg 27%
    13:00 +38°C° 0 mm 3 mps 727 mmHg 26%
    14:00 +38°C° 0 mm 3 mps 726 mmHg 26%
    15:00 +38°C° 0 mm 3 mps 725 mmHg 25%
    16:00 +35°C° 0 mm 3 mps 725 mmHg 38%
    17:00 +31°C° 0 mm 3 mps 725 mmHg 50%
    18:00 +27°C° 0 mm 3 mps 725 mmHg 62%
    19:00 +26°C° 0 mm 3 mps 726 mmHg 70%
    20:00 +25°C° 0 mm 2 mps 726 mmHg 78%
    21:00 +24°C° 0 mm 2 mps 727 mmHg 85%
    22:00 +24°C° 0 mm 2 mps 727 mmHg 86%
    23:00 +24°C° 0 mm 2 mps 727 mmHg 87%

    Day after tomorrow, 14 November, Thursday

    Time Temperature Precipitation Wind Pressure Humidity
    00:00 +24°C° 0 mm 2 mps 727 mmHg 88%
    01:00 +24°C° 0 mm 2 mps 727 mmHg 86%
    02:00 +25°C° 0 mm 2 mps 726 mmHg 84%
    03:00 +25°C° 0 mm 2 mps 726 mmHg 82%
    04:00 +25°C° 0 mm 3 mps 727 mmHg 81%
    05:00 +25°C° 0 mm 3 mps 727 mmHg 80%
    06:00 +24°C° 0 mm 3 mps 727 mmHg 80%
    07:00 +26°C° 0 mm 3 mps 728 mmHg 70%
    08:00 +28°C° 0 mm 3 mps 728 mmHg 61%
    09:00 +30°C° 0 mm 4 mps 729 mmHg 51%
    10:00 +33°C° 0 mm 4 mps 728 mmHg 45%
    11:00 +35°C° 0 mm 4 mps 728 mmHg 39%
    12:00 +37°C° 0 mm 4 mps 727 mmHg 33%
    13:00 +37°C° 0 mm 4 mps 727 mmHg 33%
    14:00 +37°C° 0 mm 4 mps 726 mmHg 33%
    15:00 +36°C° 0 mm 4 mps 725 mmHg 33%
    16:00 +34°C° 0 mm 4 mps 725 mmHg 42%
    17:00 +30°C° 0 mm 4 mps 725 mmHg 51%
    18:00 +28°C° 0 mm 3 mps 725 mmHg 60%
    19:00 +27°C° 0 mm 3 mps 726 mmHg 69%
    20:00 +25°C° 0 mm 3 mps 726 mmHg 77%
    21:00 +24°C° 0 mm 3 mps 727 mmHg 85%
    22:00 +24°C° 0 mm 2 mps 727 mmHg 86%
    23:00 +24°C° 0 mm 2 mps 726 mmHg 87%

    15 November, Friday

    Time Temperature Precipitation Wind Pressure Humidity
    00:00 +24°C° 0 mm 2 mps 726 mmHg 88%
    01:00 +25°C° 0 mm 3 mps 726 mmHg 84%
    02:00 +25°C° 0 mm 3 mps 726 mmHg 81%
    03:00 +25°C° 0 mm 3 mps 726 mmHg 77%
    04:00 +25°C° 0 mm 3 mps 726 mmHg 79%
    05:00 +25°C° 0 mm 3 mps 726 mmHg 80%
    06:00 +25°C° 0 mm 3 mps 726 mmHg 81%
    07:00 +27°C° 0 mm 3 mps 727 mmHg 71%
    08:00 +28°C° 0 mm 3 mps 728 mmHg 63%
    09:00 +30°C° 0 mm 3 mps 728 mmHg 54%
    10:00 +31°C° 0 mm 3 mps 728 mmHg 49%
    11:00 +33°C° 0 mm 3 mps 727 mmHg 45%
    12:00 +35°C° 0 mm 3 mps 727 mmHg 40%
    13:00 +35°C° 0 mm 3 mps 726 mmHg 37%
    14:00 +36°C° 0 mm 3 mps 725 mmHg 34%
    15:00 +37°C° 0 mm 3 mps 724 mmHg 30%
    16:00 +34°C° 0 mm 3 mps 724 mmHg 41%
    17:00 +31°C° 0 mm 3 mps 724 mmHg 51%
    18:00 +28°C° 0 mm 3 mps 724 mmHg 61%
    19:00 +27°C° 0 mm 3 mps 725 mmHg 70%
    20:00 +25°C° 0 mm 3 mps 725 mmHg 78%
    21:00 +24°C° 0 mm 3 mps 725 mmHg 86%
    22:00 +24°C° 0 mm 2 mps 725 mmHg 87%
    23:00 +24°C° 0 mm 2 mps 725 mmHg 89%

    16 November, Saturday

    Time Temperature Precipitation Wind Pressure Humidity
    00:00 +24°C° 0 mm 2 mps 725 mmHg 90%
    01:00 +24°C° 0 mm 2 mps 724 mmHg 90%
    02:00 +24°C° 0 mm 2 mps 724 mmHg 89%
    03:00 +24°C° 0 mm 2 mps 724 mmHg 89%
    04:00 +24°C° 0 mm 2 mps 724 mmHg 86%
    05:00 +25°C° 0 mm 2 mps 725 mmHg 82%
    06:00 +25°C° 0 mm 2 mps 725 mmHg 79%
    07:00 +26°C° 0 mm 2 mps 726 mmHg 71%
    08:00 +28°C° 0 mm 2 mps 727 mmHg 64%
    09:00 +29°C° 0 mm 2 mps 727 mmHg 56%
    10:00 +31°C° 0 mm 3 mps 727 mmHg 49%
    11:00 +34°C° 0 mm 3 mps 726 mmHg 42%
    12:00 +37°C° 0 mm 3 mps 726 mmHg 35%
    13:00 +37°C° 0 mm 3 mps 725 mmHg 34%
    14:00 +37°C° 0 mm 4 mps 724 mmHg 34%
    15:00 +37°C° 0 mm 4 mps 724 mmHg 34%
    16:00 +34°C° 0 mm 4 mps 724 mmHg 44%
    17:00 +30°C° 0 mm 3 mps 724 mmHg 55%
    18:00 +27°C° 0 mm 3 mps 724 mmHg 65%
    19:00 +26°C° 0 mm 3 mps 724 mmHg 72%
    20:00 +25°C° 0 mm 2 mps 724 mmHg 78%
    21:00 +24°C° 0 mm 2 mps 725 mmHg 84%
    22:00 +24°C° 0 mm 2 mps 725 mmHg 86%
    23:00 +24°C° 0 mm 2 mps 724 mmHg 87%

    17 November, Sunday

    Time Temperature Precipitation Wind Pressure Humidity
    00:00 +24°C° 0 mm 2 mps 724 mmHg 89%
    01:00 +24°C° 0 mm 2 mps 724 mmHg 89%
    02:00 +24°C° 0 mm 1 mps 724 mmHg 89%
    03:00 +24°C° 0 mm 1 mps 724 mmHg 90%
    04:00 +24°C° 0 mm 1 mps 724 mmHg 86%
    05:00 +25°C° 0 mm 2 mps 725 mmHg 83%
    06:00 +25°C° 0 mm 2 mps 726 mmHg 80%
    07:00 +27°C° 0 mm 2 mps 726 mmHg 71%
    08:00 +28°C° 0 mm 3 mps 727 mmHg 62%
    09:00 +30°C° 0 mm 3 mps 727 mmHg 54%
    10:00 +33°C° 0 mm 3 mps 727 mmHg 47%
    11:00 +35°C° 0 mm 3 mps 727 mmHg 41%
    12:00 +37°C° 0 mm 4 mps 726 mmHg 34%
    13:00 +37°C° 0 mm 4 mps 725 mmHg 34%
    14:00 +37°C° 0 mm 4 mps 725 mmHg 33%
    15:00 +36°C° 0 mm 5 mps 724 mmHg 32%
    16:00 +34°C° 0 mm 4 mps 724 mmHg 43%
    17:00 +30°C° 0 mm 4 mps 724 mmHg 54%
    18:00 +27°C° 0 mm 3 mps 724 mmHg 65%
    19:00 +26°C° 0 mm 3 mps 725 mmHg 72%
    20:00 +25°C° 0 mm 2 mps 725 mmHg 79%
    21:00 +24°C° 0 mm 2 mps 726 mmHg 86%
    22:00 +24°C° 0 mm 2 mps 726 mmHg 88%
    23:00 +24°C° 0 mm 2 mps 725 mmHg 90%
    Show more